Weather History for KACT - April, 2014

Change the Weather History Date:

Monday, April 21, 2014

  Actual Average Record
Temperature  
Mean Temperature 72 °F 68 °F  
Max Temperature 81 °F 79 °F 94 °F (1925)
Min Temperature 62 °F 56 °F 43 °F (1910)
Degree Days  
Heating Degree Days 0 2  
Month to date heating degree days 91 68  
Since 1 July heating degree days 2584 2126  
Cooling Degree Days 7 4  
Month to date cooling degree days 69 64  
Year to date cooling degree days 84 107  
Growing Degree Days 22 (Base 50)    
Moisture  
Dew Point 63 °F    
Average Humidity 76    
Maximum Humidity 93    
Minimum Humidity 58    
Precipitation  
Precipitation T in 0.10 in 2.56 in (1945)
Month to date precipitation 1.70 1.72  
Year to date precipitation 3.33 9.62  
Snow  
Snow 0.00 in 0.00 in 0.00 in ()
Month to date snowfall 0.0 0.2  
Since 1 July snowfall 0.1 1.2  
Snow Depth 0.00 in    
Sea Level Pressure  
Sea Level Pressure 29.98 in    
Wind  
Wind Speed 9 mph (South)    
Max Wind Speed 15 mph    
Max Gust Speed 20 mph    
Visibility 10 miles    
Events Thunderstorm    
T = Trace of Precipitation, MM = Missing Value Source: NWS Daily Summary

Daily Weather History Graph

Daily Weather History Graph

Search for Another Location

Airport or City:

Trip Planner

Search our weather history database for the weather conditions in past years. The results will help you decide how hot, cold, wet, or windy it might be!

Date:

Astronomy

Apr. 21, 2014 Rise Set
Actual Time 6:53 AM CDT 8:01 PM CDT
Civil Twilight 6:28 AM CDT 8:27 PM CDT
Nautical Twilight 5:58 AM CDT 8:57 PM CDT
Astronomical Twilight 5:27 AM CDT 9:28 PM CDT
Moon 1:27 AM CDT (4/21) 12:26 PM CDT (4/21)
Length of Visible Light 13h 58m
Length of Day
13h 08m
Waning Gibbous, 57% of the Moon is Illuminated
Apr 21
Waning Gibbous
Apr 22
Last Quarter
Apr 29
New
May 6
First Quarter
May 14
Full

Hourly Weather History & Observations

Time (CDT) Temp. Heat Index Dew Point Humidity Pressure Visibility Wind Dir Wind Speed Gust Speed Precip Events Conditions
12:51 AM 69.1 °F - 57.0 °F 65% 30.03 in 10.0 mi South 8.1 mph - N/A   Overcast
1:51 AM 68.0 °F - 55.9 °F 65% 30.04 in 10.0 mi South 10.4 mph - N/A   Overcast
2:51 AM 66.0 °F - 57.0 °F 73% 30.02 in 10.0 mi South 9.2 mph - N/A   Overcast
3:51 AM 64.4 °F - 57.2 °F 77% 30.02 in 10.0 mi South 13.8 mph - N/A   Clear
4:51 AM 63.0 °F - 59.0 °F 87% 30.01 in 10.0 mi South 11.5 mph - N/A   Partly Cloudy
5:43 AM 62.6 °F - 60.8 °F 94% 30.02 in 10.0 mi South 11.5 mph - N/A   Mostly Cloudy
5:51 AM 63.0 °F - 60.1 °F 90% 30.00 in 10.0 mi South 9.2 mph - N/A   Mostly Cloudy
6:51 AM 64.4 °F - 60.8 °F 88% 30.03 in 10.0 mi South 12.7 mph - N/A   Overcast
7:22 AM 64.4 °F - 60.8 °F 88% 30.04 in 10.0 mi South 8.1 mph - N/A   Overcast
7:51 AM 64.9 °F - 61.0 °F 87% 30.03 in 10.0 mi South 8.1 mph - N/A   Overcast
8:51 AM 66.0 °F - 62.1 °F 87% 30.03 in 10.0 mi South 9.2 mph - N/A   Overcast
9:51 AM 68.0 °F - 63.0 °F 84% 30.02 in 10.0 mi South 10.4 mph - N/A   Overcast
10:51 AM 70.0 °F - 64.0 °F 81% 30.02 in 10.0 mi South 11.5 mph - N/A   Overcast
11:17 AM 71.6 °F - 64.4 °F 78% 30.04 in 10.0 mi SSE 12.7 mph - N/A   Overcast
11:51 AM 72.0 °F - 64.9 °F 78% 30.03 in 10.0 mi South 9.2 mph - N/A   Overcast
12:51 PM 75.0 °F - 64.9 °F 71% 30.01 in 10.0 mi SSW 10.4 mph - N/A   Overcast
1:51 PM 78.1 °F - 64.9 °F 64% 29.99 in 10.0 mi South 12.7 mph - N/A   Overcast
2:51 PM 80.1 °F 81.9 °F 64.9 °F 60% 29.97 in 10.0 mi South 11.5 mph - N/A   Mostly Cloudy
3:51 PM 79.0 °F - 64.9 °F 62% 29.93 in 10.0 mi South 12.7 mph - N/A   Clear
4:30 PM 78.8 °F - 64.4 °F 61% 29.94 in 10.0 mi SSE 10.4 mph - N/A Thunderstorm Clear
4:51 PM 77.0 °F - 64.0 °F 64% 29.91 in 10.0 mi SSE 9.2 mph - N/A Thunderstorm Partly Cloudy
5:12 PM 77.0 °F - 64.4 °F 65% 29.92 in 10.0 mi SSE 11.5 mph - 0.00 in   Partly Cloudy
5:51 PM 75.0 °F - 64.0 °F 69% 29.91 in 10.0 mi South 11.5 mph - 0.00 in   Partly Cloudy
6:27 PM 77.0 °F - 64.4 °F 65% 29.92 in 10.0 mi SE 6.9 mph - 0.00 in Thunderstorm Partly Cloudy
6:42 PM 75.2 °F - 64.4 °F 69% 29.93 in 10.0 mi SE 6.9 mph - 0.00 in   Clear
6:51 PM 75.9 °F - 64.0 °F 67% 29.92 in 10.0 mi South 8.1 mph - 0.00 in   Clear
7:06 PM 73.4 °F - 64.4 °F 73% 29.93 in 10.0 mi SSE 6.9 mph - N/A Thunderstorm Scattered Clouds
7:47 PM 71.6 °F - 66.2 °F 83% 29.94 in 10.0 mi Calm Calm - 0.00 in   Scattered Clouds
7:51 PM 71.1 °F - 66.0 °F 84% 29.92 in 10.0 mi Calm Calm - 0.00 in   Scattered Clouds
8:51 PM 68.0 °F - 64.9 °F 90% 29.94 in 9.0 mi Calm Calm - N/A   Clear
9:51 PM 64.9 °F - 63.0 °F 93% 29.94 in 9.0 mi NW 5.8 mph - N/A   Clear
10:51 PM 68.0 °F - 66.0 °F 93% 29.98 in 9.0 mi NNW 3.5 mph - N/A   Overcast
11:51 PM 66.0 °F - 64.0 °F 93% 29.98 in 7.0 mi NNE 4.6 mph - N/A   Scattered Clouds